KJ4YRE Weather Reports


time (UTC)temp
F
wind
direction
speed
knots
gust
knots
rain 1hr
in
rain 24hr
in
rain mn
in
humidity
%
barometer
mb
20260507140505 56 86 0.0 5.2 0.01 0.08 0.05 100 1012.3
20260507140217 56 82 1.7 5.2 0.01 0.08 0.05 100 1012.2
20260507135505 56 77 0.9 5.2 0.01 0.08 0.05 100 1012.1
20260507135005 56 75 0.9 2.6 0.01 0.08 0.05 100 1011.9
20260507134716 56 77 2.6 7.0 0.01 0.08 0.05 100 1012.0
20260507134006 56 74 1.7 7.0 0.01 0.08 0.05 100 1011.7
20260507133505 56 77 1.7 7.8 0.01 0.08 0.05 100 1011.9
20260507133007 56 74 3.5 7.8 0.01 0.08 0.05 100 1011.9
20260507132504 56 77 1.7 5.2 0.01 0.08 0.05 100 1011.5
20260507132004 56 94 0.9 2.6 0.01 0.08 0.05 100 1011.6
20260507131505 56 61 0.9 2.6 0.01 0.08 0.05 100 1011.8
20260507131006 56 76 0.9 6.1 0.01 0.08 0.05 100 1011.7
20260507130505 57 97 0.9 4.3 0.00 0.07 0.04 100 1011.5
20260507130007 56 73 1.7 4.3 0.00 0.07 0.04 100 1011.7
20260507125715 57 78 0.9 2.6 0.00 0.07 0.04 100 1011.6
20260507125007 57 75 0.9 2.6 0.00 0.07 0.04 100 1011.5
20260507124504 57 80 0.9 2.6 0.00 0.07 0.04 100 1011.3
20260507124216 57 76 1.7 6.1 0.00 0.07 0.04 100 1011.3
20260507123505 56 77 0.9 4.3 0.00 0.07 0.04 100 1011.2
20260507123005 57 82 0.9 4.3 0.00 0.07 0.04 100 1011.4
20260507122716 57 86 0.9 6.1 0.01 0.07 0.04 100 1011.3
20260507122006 57 77 0.9 4.3 0.02 0.07 0.04 100 1011.2
20260507121504 56 77 0.9 4.3 0.02 0.07 0.04 100 1011.4
20260507121216 56 77 0.9 5.2 0.02 0.07 0.04 100 1011.6
20260507120505 56 79 1.7 5.2 0.02 0.07 0.04 100 1011.5
20260507120218 56 78 0.9 4.3 0.03 0.07 0.04 100 1011.4
20260507115506 56 71 1.7 4.3 0.03 0.07 0.04 100 1011.3
20260507115216 56 77 1.7 5.2 0.03 0.07 0.04 100 1011.1
20260507114504 57 78 1.7 7.8 0.03 0.07 0.04 100 1011.2
20260507114216 57 75 1.7 6.1 0.03 0.07 0.04 100 1011.1
20260507113506 57 78 2.6 7.0 0.03 0.07 0.04 100 1011.4
20260507113218 57 74 1.7 4.3 0.04 0.07 0.04 100 1011.4
20260507112505 57 78 1.7 4.3 0.03 0.06 0.03 100 1011.5
20260507112216 58 79 1.7 4.3 0.02 0.05 0.02 100 1011.3
20260507111506 58 75 0.9 4.3 0.02 0.05 0.02 100 1011.2
20260507111006 58 78 0.9 4.3 0.02 0.05 0.02 100 1011.2
20260507110505 58 77 0.9 2.6 0.02 0.05 0.02 100 1011.1
20260507110005 58 73 0.9 7.0 0.01 0.04 0.01 100 1010.9
20260507105714 58 59 0.9 2.6 0.01 0.04 0.01 100 1010.9
20260507105215 58 77 1.7 5.2 0.01 0.04 0.01 100 1010.6
20260507104505 58 75 1.7 2.6 0.01 0.04 0.01 100 1010.6
20260507104005 58 77 2.6 5.2 0.01 0.04 0.01 100 1010.6
20260507103506 59 78 1.7 4.3 0.01 0.04 0.01 100 1010.4
20260507103217 59 81 1.7 5.2 0.00 0.03 0.00 100 1010.6
20260507102506 59 77 1.7 5.2 0.00 0.03 0.00 100 1010.7
20260507102217 59 74 1.7 4.3 0.00 0.03 0.00 100 1010.9
20260507101714 59 77 1.7 2.6 0.00 0.03 0.00 100 1010.8
20260507101217 59 76 0.9 4.3 0.00 0.03 0.00 100 1010.5
20260507100504 59 84 2.6 6.1 0.00 0.03 0.00 100 1010.4
20260507100007 59 67 0.9 2.6 0.00 0.03 0.00 100 1010.5
20260507095505 59 77 2.6 7.0 0.00 0.03 0.00 100 1010.6
20260507095005 59 77 1.7 7.0 0.00 0.03 0.00 100 1010.4
20260507094506 60 77 1.7 5.2 0.00 0.03 0.00 100 1010.2
20260507094006 60 77 1.7 7.8 0.00 0.03 0.00 100 1010.4
20260507093505 60 76 2.6 8.7 0.00 0.03 0.00 100 1010.5
20260507093217 60 71 0.9 2.6 0.00 0.03 0.00 100 1010.3
20260507092506 61 73 0.9 11.3 0.00 0.03 0.00 100 1010.2
20260507092005 61 75 2.6 12.2 0.00 0.03 0.00 100 1010.3
20260507091505 61 77 5.2 12.2 0.00 0.03 0.00 100 1010.0
20260507091217 62 75 1.7 6.1 0.00 0.03 0.00 100 1009.7
20260507090718 63 77 4.3 10.4 0.00 0.03 0.00 99 1009.6
20260507090217 64 77 2.6 5.2 0.00 0.03 0.00 99 1009.4
20260507085505 65 76 1.7 7.0 0.00 0.03 0.00 100 1009.3
20260507085006 66 77 0.9 1.7 0.00 0.03 0.00 100 1009.0
20260507084505 66 260 0.9 0.9 0.00 0.03 0.00 100 1009.0
20260507084217 66 125 0.0 0.0 0.00 0.03 0.00 100 1009.0
20260507083506 66 288 0.9 1.7 0.00 0.03 0.00 100 1009.2
20260507083217 66 53 0.9 2.6 0.00 0.03 0.00 100 1009.1
20260507082716 66 77 0.9 1.7 0.00 0.03 0.00 100 1008.6
20260507082005 66 83 0.9 1.7 0.00 0.03 0.00 100 1008.8
20260507081504 66 207 0.9 1.7 0.00 0.03 0.00 100 1008.7
20260507081006 66 184 0.9 0.9 0.00 0.03 0.00 99 1009.0
20260507080715 66 74 0.9 0.9 0.00 0.03 0.00 99 1009.0
20260507080005 67 77 0.9 1.7 0.00 0.03 0.00 99 1009.0
20260507075715 67 312 1.7 4.3 0.00 0.03 0.00 99 1009.0
20260507075006 67 264 1.7 1.7 0.00 0.03 0.00 99 1008.9
20260507074505 67 191 0.9 4.3 0.00 0.03 0.00 98 1009.2
20260507074006 67 279 0.9 6.1 0.00 0.03 0.00 98 1009.3
20260507073505 67 239 1.7 5.2 0.00 0.03 0.00 97 1009.4
20260507073006 67 258 3.5 10.4 0.00 0.03 0.00 96 1009.4
20260507072505 67 248 4.3 8.7 0.00 0.03 0.00 97 1009.4
20260507072005 67 267 4.3 11.3 0.00 0.03 0.00 96 1009.2
20260507071715 67 227 2.6 7.0 0.00 0.03 0.00 97 1009.3
20260507071006 67 299 2.6 10.4 0.00 0.03 0.00 97 1009.3
20260507070506 67 183 2.6 7.8 0.00 0.03 0.00 97 1009.1
20260507070010 67 259 3.5 8.7 0.00 0.03 0.00 97 1008.9
20260507065715 67 232 1.7 7.8 0.00 0.03 0.00 98 1008.6
20260507065005 68 242 3.5 8.7 0.00 0.03 0.00 98 1008.8
20260507064505 68 205 3.5 8.7 0.00 0.03 0.00 96 1008.8
20260507064005 68 253 3.5 8.7 0.00 0.03 0.00 96 1008.7
20260507063505 68 230 2.6 7.0 0.00 0.03 0.00 96 1008.5
20260507063006 68 230 2.6 8.7 0.00 0.03 0.00 95 1008.5
20260507062504 68 262 0.9 7.0 0.00 0.03 0.00 96 1008.5
20260507062008 68 318 1.7 8.7 0.00 0.03 0.00 95 1008.8
20260507061506 68 243 4.3 7.8 0.00 0.03 0.00 96 1008.7
20260507061006 68 25 2.6 7.0 0.00 0.03 0.00 97 1008.8
20260507060717 68 278 4.3 10.4 0.00 0.03 0.00 96 1009.3
20260507060006 68 246 2.6 7.8 0.00 0.03 0.00 97 1009.4
20260507055505 68 232 2.6 7.8 0.00 0.03 0.00 96 1009.4
20260507055005 68 243 4.3 7.8 0.00 0.03 0.00 95 1009.7
20260507054505 68 253 4.3 7.0 0.00 0.03 0.00 94 1010.0
20260507054005 69 277 3.5 11.3 0.00 0.03 0.00 92 1010.1
20260507053505 69 254 2.6 10.4 0.00 0.03 0.00 92 1010.1
20260507053005 69 225 4.3 7.8 0.00 0.03 0.00 92 1010.1
20260507052506 69 255 3.5 7.8 0.00 0.03 0.00 90 1010.3
20260507052216 69 189 2.6 7.8 0.00 0.03 0.00 92 1010.6
20260507051716 69 254 3.5 8.7 0.00 0.03 0.00 90 1010.8
20260507051006 69 218 4.3 7.8 0.00 0.03 0.00 88 1010.9
20260507050716 70 245 4.3 7.8 0.00 0.03 0.00 87 1011.0
20260507050006 70 243 2.6 7.0 0.00 0.03 0.00 86 1010.9
20260507045714 70 230 2.6 10.4 0.00 0.03 0.00 86 1010.9
20260507045215 70 250 5.2 10.4 0.00 0.03 0.00 86 1011.0
20260507044505 70 238 1.7 6.1 0.00 0.03 0.00 86 1011.0
20260507044005 70 225 2.6 8.7 0.00 0.03 0.00 86 1011.0
20260507043505 70 62 1.7 7.0 0.00 0.03 0.00 86 1011.1
20260507043005 69 267 2.6 7.8 0.00 0.03 0.00 86 1011.1
20260507042716 69 282 1.7 10.4 0.00 0.03 0.00 86 1010.9
20260507042007 69 284 4.3 10.4 0.00 0.03 0.00 87 1010.8
20260507041716 69 248 2.6 7.8 0.00 0.03 0.00 87 1010.8
20260507041217 69 240 2.6 7.0 0.00 0.03 0.00 88 1010.7
20260507040716 69 236 3.5 7.8 0.00 0.03 0.00 88 1010.6
20260507040013 68 234 1.7 7.0 0.00 0.03 0.00 89 1010.7
20260507035505 68 243 1.7 10.4 0.00 0.03 0.03 90 1010.8
20260507035215 68 231 2.6 7.0 0.00 0.03 0.03 90 1010.8
20260507034505 68 260 4.3 6.1 0.00 0.03 0.03 90 1010.7
20260507034005 68 220 2.6 7.8 0.00 0.03 0.03 90 1010.7
20260507033506 68 237 2.6 6.1 0.00 0.03 0.03 90 1010.7
20260507033006 68 246 1.7 5.2 0.00 0.03 0.03 90 1010.7
20260507032506 68 223 1.7 4.3 0.00 0.03 0.03 90 1010.6
20260507032005 68 194 1.7 5.2 0.00 0.03 0.03 90 1010.7
20260507031505 68 256 2.6 6.1 0.00 0.03 0.03 89 1010.6
20260507031007 68 250 2.6 7.0 0.00 0.03 0.03 89 1010.4
20260507030505 68 254 4.3 6.1 0.00 0.03 0.03 89 1010.5
20260507030006 68 304 3.5 6.1 0.00 0.03 0.03 89 1010.7
20260507025504 68 248 2.6 7.0 0.00 0.03 0.03 90 1010.7
20260507025005 68 260 1.7 7.8 0.00 0.03 0.03 89 1010.7
20260507024715 68 271 2.6 7.0 0.00 0.03 0.03 88 1010.8
20260507024007 69 202 2.6 7.0 0.00 0.03 0.03 88 1010.8
20260507023506 68 230 2.6 7.8 0.00 0.03 0.03 89 1011.0
20260507023216 68 222 2.6 7.8 0.00 0.03 0.03 89 1011.0
20260507022505 68 228 2.6 6.1 0.00 0.03 0.03 89 1011.0
20260507022216 68 242 2.6 7.0 0.00 0.03 0.03 89 1011.0
20260507021505 68 225 2.6 7.0 0.00 0.03 0.03 90 1010.9
20260507021005 68 239 4.3 7.0 0.00 0.03 0.03 90 1010.9
20260507020505 68 237 3.5 7.8 0.00 0.03 0.03 91 1010.9
20260507020007 67 252 1.7 7.0 0.00 0.03 0.03 91 1010.9
20260507015715 67 235 1.7 5.2 0.00 0.03 0.03 91 1010.8
20260507015005 67 233 1.7 4.3 0.00 0.03 0.03 91 1010.9
20260507014504 67 232 0.9 5.2 0.00 0.03 0.03 91 1010.9
20260507014007 67 247 1.7 5.2 0.00 0.03 0.03 91 1011.0
20260507013505 67 237 1.7 5.2 0.00 0.03 0.03 90 1011.0
20260507013007 67 231 1.7 4.3 0.00 0.03 0.03 90 1011.1
20260507012505 67 242 1.7 5.2 0.00 0.03 0.03 90 1011.1
20260507012007 68 235 1.7 4.3 0.00 0.03 0.03 89 1011.1
20260507011715 68 230 1.7 2.6 0.00 0.03 0.03 89 1011.0
20260507011007 68 242 1.7 2.6 0.00 0.03 0.03 88 1011.0
20260507010505 68 233 0.9 2.6 0.00 0.03 0.03 87 1011.1
20260507010005 69 241 1.7 5.2 0.00 0.03 0.03 86 1011.2
20260507005506 69 242 0.9 4.3 0.00 0.03 0.03 86 1011.2
20260507005005 69 225 2.6 6.1 0.00 0.03 0.03 85 1011.4
20260507004505 69 252 1.7 4.3 0.00 0.03 0.03 84 1011.3
20260507004006 69 228 1.7 4.3 0.00 0.03 0.03 84 1011.3
20260507003508 70 220 2.6 5.2 0.00 0.03 0.03 83 1011.3
20260507003006 70 244 1.7 4.3 0.00 0.03 0.03 83 1011.3
20260507002507 70 224 1.7 2.6 0.00 0.03 0.03 82 1011.3
20260507002006 71 225 1.7 4.3 0.00 0.03 0.03 81 1011.3
20260507001505 71 247 1.7 7.0 0.00 0.03 0.03 81 1011.2
20260507001005 71 254 2.6 5.2 0.00 0.03 0.03 80 1011.1
20260507000715 71 230 1.7 5.2 0.00 0.03 0.03 80 1011.0
20260507000006 71 244 3.5 7.0 0.00 0.03 0.03 80 1011.0
20260506235505 71 255 5.2 8.7 0.00 0.03 0.03 79 1010.8
20260506235216 71 233 2.6 7.0 0.00 0.03 0.03 79 1011.0
20260506234505 72 261 0.9 5.2 0.00 0.03 0.03 79 1010.9
20260506234216 72 241 2.6 6.1 0.00 0.03 0.03 79 1011.0
20260506233505 72 231 2.6 5.2 0.00 0.03 0.03 78 1011.0
20260506233006 72 265 1.7 7.0 0.00 0.03 0.03 77 1010.9
20260506232504 72 239 2.6 6.1 0.00 0.03 0.03 78 1010.9
20260506232005 72 265 1.7 4.3 0.00 0.03 0.03 78 1011.0
20260506231506 72 248 1.7 5.2 0.00 0.03 0.03 77 1010.9
20260506231007 73 250 0.9 7.0 0.00 0.03 0.03 77 1010.8
20260506230505 73 268 1.7 4.3 0.00 0.03 0.03 76 1010.8
20260506230006 73 264 1.7 4.3 0.00 0.03 0.03 77 1010.8
20260506225505 73 151 0.9 6.1 0.00 0.03 0.03 75 1010.7
20260506225005 73 348 1.7 4.3 0.00 0.03 0.03 76 1010.8
20260506224505 73 226 2.6 5.2 0.00 0.03 0.03 76 1010.8
20260506224215 73 215 3.5 6.1 0.00 0.03 0.03 76 1010.7
20260506223504 73 107 2.6 6.1 0.00 0.03 0.03 76 1010.8
20260506223007 73 251 0.9 6.1 0.00 0.03 0.03 75 1010.7
20260506222504 73 241 1.7 5.2 0.00 0.03 0.03 76 1010.7
20260506222005 73 194 1.7 6.1 0.00 0.03 0.03 76 1010.8
20260506221505 73 242 3.5 6.1 0.00 0.03 0.03 75 1010.9
20260506221007 74 262 1.7 6.1 0.00 0.03 0.03 75 1010.8
20260506220505 74 236 4.3 7.8 0.00 0.03 0.03 74 1010.9
20260506220215 74 273 2.6 7.0 0.00 0.03 0.03 74 1011.1
20260506215506 74 289 1.7 6.1 0.00 0.03 0.03 73 1011.1
20260506215006 74 205 0.9 13.0 0.00 0.03 0.03 74 1011.1
20260506214505 74 319 3.5 10.4 0.00 0.03 0.03 74 1011.0
20260506214007 73 231 2.6 10.4 0.00 0.03 0.03 74 1010.9
20260506213506 73 276 2.6 7.0 0.00 0.03 0.03 75 1010.9
20260506213007 73 212 1.7 7.8 0.00 0.03 0.03 74 1010.8
20260506212716 73 281 2.6 10.4 0.00 0.03 0.03 75 1010.8
20260506212007 73 231 2.6 7.8 0.00 0.03 0.03 74 1010.8
20260506211505 73 243 2.6 7.8 0.00 0.03 0.03 74 1010.9
20260506211006 73 254 4.3 8.7 0.00 0.03 0.03 74 1011.1
20260506210505 73 262 4.3 11.3 0.00 0.03 0.03 74 1010.9
20260506210215 73 299 2.6 6.1 0.00 0.03 0.03 75 1011.0
20260506205714 73 224 4.3 8.7 0.00 0.03 0.03 74 1010.8
20260506205215 73 277 4.3 12.2 0.00 0.03 0.03 74 1010.9
20260506204505 73 221 2.6 7.8 0.00 0.03 0.03 74 1010.9
20260506204005 73 234 2.6 5.2 0.00 0.03 0.03 75 1010.8
20260506203505 73 87 0.9 6.1 0.00 0.03 0.03 75 1010.7
20260506203217 73 249 2.6 7.0 0.00 0.03 0.03 75 1010.6
20260506202504 73 35 2.6 6.1 0.00 0.03 0.03 76 1010.6
20260506202217 73 298 3.5 7.8 0.00 0.03 0.03 74 1010.1
20260506201506 73 272 3.5 8.7 0.00 0.03 0.03 76 1010.0
20260506201005 73 240 4.3 13.9 0.00 0.03 0.03 73 1010.0
20260506200505 72 245 4.3 12.2 0.00 0.03 0.03 76 1010.2
20260506200219 72 238 1.7 10.4 0.00 0.03 0.03 74 1010.4
20260506195505 72 244 7.8 13.0 0.00 0.03 0.03 75 1010.5
20260506195005 72 257 4.3 15.6 0.00 0.03 0.03 76 1010.6
20260506194505 72 269 4.3 10.4 0.00 0.03 0.03 77 1010.7
20260506194006 71 232 4.3 15.6 0.00 0.03 0.03 77 1010.7
20260506193505 71 200 4.3 11.3 0.00 0.03 0.03 79 1010.6
20260506193006 70 256 4.3 10.4 0.00 0.03 0.03 79 1010.8
20260506192504 70 243 5.2 10.4 0.00 0.03 0.03 80 1011.0
20260506192007 70 246 4.3 12.2 0.00 0.03 0.03 81 1011.1
20260506191506 70 232 6.1 11.3 0.00 0.03 0.03 80 1011.3
20260506191005 69 215 4.3 8.7 0.00 0.03 0.03 83 1011.3
20260506190505 69 258 4.3 10.4 0.00 0.03 0.03 83 1011.7
20260506190006 69 237 4.3 8.7 0.00 0.03 0.03 84 1011.7
20260506185506 69 234 3.5 7.8 0.00 0.03 0.03 84 1011.8
20260506185005 69 275 3.5 7.8 0.00 0.03 0.03 85 1011.8
20260506184505 69 283 1.7 7.8 0.00 0.03 0.03 87 1011.9
20260506184006 68 233 4.3 8.7 0.00 0.03 0.03 86 1012.0
20260506183715 69 177 2.6 7.0 0.00 0.03 0.03 88 1012.1
20260506183216 68 250 3.5 7.8 0.00 0.03 0.03 86 1012.3
20260506182505 69 256 3.5 7.8 0.00 0.03 0.03 86 1012.4
20260506182216 69 219 1.7 8.7 0.00 0.03 0.03 83 1012.6
20260506181717 70 213 1.7 13.0 0.00 0.03 0.03 81 1012.6
20260506181005 70 231 4.3 13.9 0.00 0.03 0.03 80 1012.6
20260506180505 70 227 5.2 13.0 0.00 0.03 0.03 81 1012.6
20260506180006 70 221 2.6 13.0 0.00 0.03 0.03 79 1012.7
20260506175505 70 232 1.7 8.7 0.00 0.03 0.03 80 1012.7
20260506175005 70 303 2.6 12.2 0.00 0.03 0.03 80 1012.6
20260506174506 69 233 7.0 13.0 0.00 0.03 0.03 81 1012.5
20260506174216 69 222 6.1 12.2 0.00 0.03 0.03 80 1012.5
20260506173504 69 221 2.6 10.4 0.00 0.03 0.03 82 1012.4
20260506173008 68 244 4.3 13.0 0.00 0.03 0.03 83 1012.5
20260506172504 68 244 4.3 13.0 0.00 0.03 0.03 83 1012.5
20260506172005 68 221 4.3 11.3 0.00 0.03 0.03 83 1012.5
20260506171505 68 241 3.5 8.7 0.00 0.03 0.03 85 1012.5
20260506171007 68 225 5.2 12.2 0.00 0.03 0.03 84 1012.3
20260506170505 68 270 2.6 7.8 0.00 0.03 0.03 87 1012.4
20260506170006 67 221 4.3 7.8 0.00 0.03 0.03 86 1012.6
20260506165505 67 172 0.9 7.8 0.00 0.03 0.03 87 1012.7
20260506165005 66 248 2.6 8.7 0.01 0.03 0.03 88 1012.9
20260506164505 66 233 2.6 10.4 0.01 0.03 0.03 87 1013.1
20260506164217 66 261 3.5 13.9 0.01 0.03 0.03 89 1013.0
20260506163505 66 243 4.3 8.7 0.02 0.03 0.03 90 1012.8
20260506163006 66 211 1.7 5.2 0.02 0.03 0.03 92 1012.7
20260506162716 66 261 2.6 7.0 0.02 0.03 0.03 92 1012.9
20260506162007 66 221 2.6 7.0 0.02 0.03 0.03 94 1012.9
20260506161504 66 256 0.9 7.0 0.02 0.03 0.03 95 1013.0
20260506161007 65 209 1.7 6.1 0.02 0.03 0.03 94 1013.0
20260506160504 65 158 1.7 7.0 0.02 0.03 0.03 95 1013.0
20260506160215 65 234 2.6 8.7 0.02 0.03 0.03 94 1013.3
20260506155716 66 194 0.9 7.0 0.02 0.03 0.03 95 1013.3
20260506155005 66 240 2.6 5.2 0.01 0.02 0.02 95 1013.5
20260506154506 65 214 2.6 7.0 0.02 0.02 0.02 92 1013.8
20260506154006 66 255 1.7 5.2 0.02 0.02 0.02 93 1013.8
20260506153718 66 230 2.6 7.0 0.01 0.01 0.01 90 1014.2
20260506153006 65 210 4.3 7.8 0.01 0.01 0.01 91 1014.3
20260506152504 65 258 4.3 7.8 0.01 0.01 0.01 90 1014.3
20260506152005 66 206 2.6 7.8 0.01 0.01 0.01 91 1014.1
20260506151504 66 223 4.3 7.0 0.01 0.01 0.01 90 1014.4
20260506151217 66 228 4.3 7.0 0.01 0.01 0.01 89 1014.4
20260506150718 66 286 1.7 10.4 0.01 0.01 0.01 90 1014.4
20260506150006 66 236 5.2 11.3 0.01 0.01 0.01 91 1014.4
20260506145504 66 231 4.3 6.1 0.01 0.01 0.01 89 1014.4
20260506145217 66 259 2.6 13.0 0.01 0.01 0.01 88 1014.5
20260506144716 68 247 7.0 13.0 0.00 0.00 0.00 81 1014.6
20260506144216 69 191 2.6 10.4 0.00 0.00 0.00 76 1014.7
20260506143505 69 224 3.5 11.3 0.00 0.00 0.00 75 1014.5
20260506143006 69 226 4.3 12.2 0.00 0.00 0.00 75 1014.4
20260506142506 69 218 4.3 12.2 0.00 0.00 0.00 75 1014.2
20260506142006 69 199 4.3 11.3 0.00 0.00 0.00 76 1014.0
20260506141716 69 214 2.6 13.0 0.00 0.00 0.00 77 1014.0
20260506141005 68 231 2.6 11.3 0.00 0.00 0.00 77 1014.1